RH
17 26 36 77 102 96 97 102 101 101 104 101 100 100 98 97 94 94 99 100 101 102 101 99 90 86 82 69 69 76 78 71 55 43 36 25 14 12 13 11 10 10 9 9 10 10 12 13 15 18 21 25
20 42 49 65 91 97 94 96 100 100 102 101 99 101 101 100 91 82 88 95 98 99 101 101 93 87 87 80 73 75 80 79 65 52 51 46 32 20 15 14 11 9 10 9 9 10 11 12 14 16 17 20
19 30 48 57 69 79 75 78 90 91 93 100 100 99 100 101 96 84 79 81 84 90 97 102 99 90 86 84 75 71 75 78 71 59 56 58 54 41 24 18 17 13 10 10 10 11 11 11 12 14 16 17
30 24 38 47 47 60 67 72 79 77 80 95 102 100 98 100 104 99 87 79 74 77 88 98 100 95 92 90 78 67 68 75 80 71 62 61 62 58 44 30 27 24 17 12 11 13 14 13 13 13 13 15
30 29 41 48 38 41 55 66 69 70 83 98 101 99 99 100 102 103 99 95 86 76 75 83 94 98 98 96 88 70 56 66 87 88 74 68 64 61 61 51 40 37 32 24 18 17 18 17 16 15 14 14
23 26 41 52 44 35 37 46 50 58 84 104 105 101 101 104 102 101 103 104 100 92 81 77 81 89 94 95 94 79 55 53 73 86 78 71 67 60 60 58 49 44 43 41 35 27 24 22 21 19 18 17
23 23 32 44 47 42 35 36 38 41 60 84 102 106 103 103 102 101 103 101 102 104 100 92 82 79 82 84 86 79 62 56 64 76 76 69 69 66 58 50 45 40 40 44 46 41 35 31 27 25 23 21
21 23 29 39 46 44 36 35 40 42 42 53 78 98 103 103 103 102 101 100 101 103 103 102 95 87 85 80 77 75 66 66 75 82 87 82 74 74 67 53 42 35 33 37 43 47 48 44 37 32 30 27
19 22 27 34 40 41 38 39 42 43 41 43 63 81 90 98 103 103 100 101 101 100 101 102 101 101 104 97 89 89 83 79 84 86 94 99 87 77 70 60 49 40 36 37 40 47 55 56 50 43 40 37
17 21 24 29 35 37 39 41 42 40 37 40 58 76 83 89 97 102 102 103 102 101 102 101 101 103 106 108 102 101 101 96 92 88 92 100 94 82 74 66 57 50 46 46 47 51 60 66 65 59 51 47
17 20 23 27 33 37 38 41 43 41 38 37 49 72 87 89 89 95 102 103 102 103 103 100 104 105 103 106 105 102 104 105 103 100 100 100 96 90 84 75 65 60 57 57 60 63 69 78 84 83 74 64
20 20 22 27 32 36 35 37 43 42 43 43 43 55 76 88 88 90 100 105 103 103 104 103 104 105 102 103 108 109 106 108 110 108 105 103 101 98 90 84 76 68 64 63 68 75 78 84 91 94 90 79
22 22 22 25 30 36 37 36 40 41 42 44 44 48 60 75 84 86 92 99 99 98 100 102 102 102 99 97 104 111 106 105 110 109 107 105 105 101 92 94 93 77 69 66 68 78 83 86 91 96 95 89
24 25 25 26 27 33 41 42 40 40 43 45 48 59 69 76 83 84 86 90 91 90 94 100 103 104 100 95 96 104 103 103 108 108 107 107 107 103 94 98 105 91 78 75 76 81 84 87 96 102 101 99
26 26 29 31 30 29 37 45 46 43 44 48 54 67 82 90 94 95 93 91 86 80 83 92 102 107 103 95 91 95 100 103 106 105 104 104 106 107 99 98 106 100 87 85 91 94 91 90 96 101 100 101
30 28 29 32 35 34 33 38 48 52 51 53 57 63 78 90 98 105 105 101 92 78 69 74 89 101 103 97 88 85 92 101 104 103 103 102 103 108 106 100 102 102 95 93 97 100 99 98 99 101 100 98
34 32 30 31 35 39 39 37 41 49 55 60 61 63 75 87 95 104 109 109 103 88 69 65 74 88 97 98 92 84 83 91 100 105 107 103 101 108 109 102 100 102 102 99 98 100 101 100 100 100 99 95
36 37 35 33 33 36 40 42 41 43 48 55 62 67 74 84 94 103 107 105 106 101 85 73 74 82 93 99 98 94 86 85 93 104 111 107 100 104 107 103 100 101 104 104 100 99 101 100 99 99 99 96
36 38 38 37 35 35 37 42 45 44 44 47 54 64 70 78 92 102 103 101 104 108 99 88 85 86 93 101 104 102 96 89 87 92 104 110 103 99 100 104 105 100 102 106 103 100 99 101 99 97 99 100
40 39 40 41 41 39 37 38 42 46 47 47 49 56 62 68 82 96 100 100 101 103 103 100 96 93 94 101 105 103 101 99 92 86 90 100 104 101 97 100 105 103 101 103 105 103 100 100 100 98 99 100
48 44 43 45 46 45 43 39 40 43 47 49 48 51 56 59 68 82 92 97 102 103 104 103 99 97 96 100 103 103 102 102 101 96 89 89 96 103 104 100 99 104 103 100 102 102 100 100 99 99 101 99
56 52 49 48 49 49 49 47 43 42 43 47 48 49 52 56 60 65 72 84 98 104 104 103 101 100 100 100 103 106 104 100 100 102 99 93 91 95 103 101 98 101 101 101 102 100 99 101 101 100 101 99
61 60 57 55 53 52 51 52 52 49 45 45 47 49 49 51 54 58 63 71 82 93 98 102 103 102 99 97 101 106 106 103 100 100 102 103 97 92 94 97 99 100 101 103 103 99 98 101 103 101 100 99
63 63 63 61 60 58 55 53 55 56 54 49 47 49 49 49 49 52 59 65 71 78 85 95 102 105 102 93 92 100 105 107 105 101 101 103 101 98 95 95 96 95 98 101 101 101 101 100 100 101 100 100
63 64 65 65 64 64 63 60 57 58 59 58 55 52 50 50 50 50 51 56 63 70 76 83 90 99 106 100 93 96 101 104 106 106 105 101 99 100 100 98 96 92 90 95 102 103 102 101 99 101 103 102
62 62 63 64 65 65 67 67 66 64 62 61 61 60 56 53 53 52 52 50 52 59 67 74 79 86 96 100 98 99 101 98 99 104 107 103 100 100 100 99 99 96 91 91 99 102 101 102 101 102 102 102
66 61 60 61 63 64 66 68 69 70 70 67 65 64 62 59 58 57 56 55 51 50 54 60 71 79 85 90 93 98 101 96 93 97 102 102 100 101 101 100 99 99 99 95 94 98 102 102 101 102 102 101
76 70 63 59 60 62 64 66 67 68 72 73 72 70 66 62 62 62 60 60 58 55 52 50 54 64 75 84 88 92 95 95 95 98 101 100 100 102 103 101 100 100 101 100 96 96 100 102 100 100 103 102
70 74 72 66 61 60 62 63 64 65 68 72 74 75 74 68 63 64 64 63 63 61 59 55 50 50 56 68 79 86 90 91 92 95 96 96 97 101 102 101 101 102 100 99 100 98 96 100 102 101 102 103
58 64 68 69 67 64 63 62 62 63 64 67 70 73 76 75 70 67 67 67 67 65 62 61 58 54 50 51 58 70 81 88 90 89 89 90 92 94 98 100 101 103 101 98 99 99 96 96 101 104 103 100
58 58 60 63 66 66 65 64 64 63 63 64 66 68 72 75 75 73 72 70 70 69 66 63 62 61 59 54 50 52 60 72 83 89 89 86 84 83 86 93 99 105 105 100 99 98 98 98 99 102 102 101
Wind_Speed
44 39 41 45 50 55 58 60 62 60 62 66 64 65 65 65 67 66 67 65 61 62 65 67 68 68 69 69 67 67 68 69 71 72 75 78 80 81 82 84 85 86 88 89 91 93 95 97 99 101 102 103
45 40 44 50 54 58 61 63 64 65 66 67 67 68 70 70 70 69 70 70 68 66 64 65 67 68 70 71 71 71 70 71 71 72 73 75 79 81 82 84 85 86 87 89 90 91 93 94 96 98 100 102
49 47 49 52 56 61 63 64 66 69 70 69 69 71 73 74 73 71 72 73 73 72 68 66 68 69 70 71 73 74 73 72 73 73 73 74 77 80 83 83 83 85 87 88 89 89 91 92 94 95 97 99
51 52 52 55 60 63 65 66 68 70 70 71 73 74 75 75 75 75 74 74 75 75 73 72 71 71 71 72 73 74 74 73 73 74 74 74 75 77 81 81 81 82 84 86 87 87 88 90 91 93 95 97
54 55 53 57 62 65 67 68 70 70 70 71 74 76 76 76 77 77 76 75 76 77 76 75 74 73 74 74 74 75 74 72 72 75 76 75 75 75 76 78 79 80 81 83 85 85 86 87 89 90 92 94
57 58 56 59 63 66 68 69 71 71 72 73 75 76 78 78 77 77 77 77 77 78 77 77 76 76 77 78 78 78 76 73 72 74 76 76 75 74 73 75 76 77 78 79 81 83 84 85 87 88 90 91
58 60 60 61 63 67 68 69 71 72 73 76 77 78 79 79 78 78 78 78 78 78 79 79 78 78 79 80 81 81 79 77 75 75 76 77 75 74 74 74 74 75 76 76 78 80 81 83 85 87 88 89
58 60 62 64 65 68 69 70 71 72 73 75 77 80 81 80 79 79 80 79 79 79 80 81 81 81 81 82 82 82 81 79 78 77 77 78 76 74 74 75 75 75 75 75 76 76 77 79 82 84 86 87
58 60 63 66 68 69 70 70 72 73 74 74 76 80 82 82 82 82 82 82 82 81 81 82 83 83 83 84 84 84 83 81 80 79 78 78 77 74 73 74 75 75 75 74 75 75 75 75 78 81 83 85
57 60 63 66 69 71 71 71 73 75 76 75 75 78 81 83 84 84 84 85 85 84 84 84 84 84 84 85 85 85 84 82 81 80 78 77 77 75 73 73 74 75 75 74 74 73 73 73 74 77 80 82
57 59 63 65 69 72 72 72 73 75 76 77 77 79 81 83 85 86 86 87 88 87 87 86 87 86 85 85 85 85 84 83 82 82 80 79 78 77 75 74 75 75 75 74 73 72 71 70 71 73 76 79
58 59 61 64 68 72 73 73 74 74 76 78 79 80 83 84 86 86 87 88 89 89 88 87 88 88 87 85 85 85 85 84 84 83 82 80 79 78 76 75 75 75 76 75 73 71 70 69 69 70 72 75
58 60 61 63 67 71 74 74 75 76 76 78 79 80 83 85 86 87 88 90 91 90 89 88 88 88 87 85 85 84 84 83 83 82 81 81 80 79 77 75 74 75 76 75 74 72 69 68 66 66 68 71
57 59 61 63 66 69 72 74 76 77 78 78 78 80 82 85 87 88 89 91 92 92 90 88 89 90 89 87 86 86 85 84 84 84 82 81 80 79 78 76 75 75 74 74 73 72 70 68 66 65 65 67
57 58 60 62 65 68 71 74 76 77 78 78 79 80 83 85 87 89 91 93 94 94 92 90 90 91 91 90 88 87 87 86 86 86 84 82 81 80 79 77 77 77 76 75 73 71 71 70 69 68 66 66
58 59 60 61 64 67 69 72 75 77 79 79 81 82 83 86 88 90 92 95 97 97 95 93 91 91 91 91 90 89 88 88 88 88 86 84 82 82 81 79 78 79 78 77 75 74 73 73 73 72 70 69
59 60 60 61 63 67 69 72 74 77 79 81 83 84 84 87 89 90 93 97 99 99 98 95 93 92 92 92 92 90 89 88 89 89 88 86 84 84 84 82 81 82 81 80 78 77 77 78 78 76 74 74
60 61 62 63 64 66 69 71 74 77 80 82 84 86 87 88 90 92 95 98 100 100 99 97 95 94 93 93 93 93 92 90 90 90 90 89 87 86 86 86 85 84 85 84 82 81 81 81 82 79 76 74
61 62 64 64 65 66 68 71 74 77 79 81 84 87 89 90 91 94 96 98 100 100 100 99 97 96 95 94 94 95 96 94 93 92 92 92 90 89 88 89 89 88 87 87 86 85 85 84 85 84 81 77
63 64 64 66 66 68 69 71 73 76 78 81 83 86 90 91 93 96 98 99 99 100 101 101 99 99 98 97 96 96 98 98 97 95 94 94 93 92 91 91 92 91 90 90 89 89 88 88 88 87 86 84
67 66 66 66 68 69 71 72 73 75 77 81 83 86 90 92 94 97 99 100 100 100 102 102 101 101 100 100 98 98 98 100 101 100 98 96 95 95 94 93 93 93 93 93 92 92 91 91 91 90 89 89
70 70 69 68 69 70 72 73 74 76 77 80 83 86 89 93 95 97 99 100 101 102 103 103 102 102 102 102 101 101 100 100 101 103 103 101 99 97 96 95 94 94 94 95 95 95 94 94 94 94 93 91
72 72 72 71 71 72 73 74 75 77 78 80 82 85 88 92 95 97 98 99 101 104 104 104 104 104 104 103 103 104 103 102 102 104 107 107 104 101 98 97 96 95 95 96 97 97 97 97 97 98 97 95
76 75 75 74 74 74 75 75 76 77 79 81 82 84 87 90 93 95 98 100 102 104 105 105 106 106 106 106 104 104 106 106 105 106 108 110 110 105 101 99 98 98 97 96 97 99 100 99 99 100 101 100
79 78 77 77 77 77 77 77 78 79 80 82 84 85 87 89 91 93 97 100 103 105 106 106 107 107 108 108 106 106 108 110 110 109 109 110 111 110 106 102 101 101 100 98 98 100 102 102 101 100 102 103
82 82 81 80 80 80 80 80 80 81 82 84 85 86 88 89 90 92 95 98 101 104 107 108 108 108 109 109 109 109 110 112 112 113 112 110 109 111 111 108 105 104 103 102 102 103 103 104 104 103 102 104
84 85 85 84 84 83 83 83 83 84 84 85 86 88 90 90 91 92 94 97 99 102 105 108 109 110 111 111 111 111 112 113 113 113 114 113 110 110 112 114 112 108 107 107 107 106 105 105 106 105 104 104
88 88 88 88 87 87 86 86 86 86 86 87 88 89 91 92 93 94 96 97 99 100 103 106 108 110 111 113 113 113 114 114 114 113 114 115 114 112 112 114 116 115 113 111 110 109 108 107 107 106 106 107
92 91 91 91 91 90 90 90 90 89 89 90 90 91 93 94 94 95 97 98 100 101 103 104 106 107 110 113 114 115 116 116 116 116 116 116 116 116 114 113 115 118 118 116 114 113 111 110 109 108 110 110
95 95 95 94 94 94 94 93 93 93 93 93 93 94 95 96 97 97 98 100 101 103 104 105 105 106 108 110 113 115 117 118 118 118 118 118 118 118 118 117 115 116 119 120 119 117 114 113 112 112 113 113
99 99 98 98 98 98 97 97 97 97 96 96 97 97 97 98 99 99 100 101 103 104 106 106 107 107 108 109 111 113 116 118 120 120 121 120 120 120 119 119 119 118 118 120 122 122 120 117 115 115 116 115
Wind_Direction
253 241 229 222 225 229 230 229 230 230 229 230 231 230 231 230 228 226 225 227 233 242 249 250 248 247 246 244 242 241 240 240 239 239 241 241 240 239 238 238 238 237 237 237 237 238 238 238 238 239 239 239
250 238 230 223 223 226 227 227 227 228 229 229 229 230 231 231 231 229 226 225 227 232 239 246 248 247 246 246 244 242 241 241 240 239 239 241 242 240 239 238 238 238 237 237 237 238 238 238 239 239 240 240
250 240 234 230 226 228 229 228 228 228 228 228 229 229 230 232 234 233 230 229 229 230 232 237 242 245 245 245 245 244 242 241 242 241 239 240 242 243 241 240 239 239 239 238 238 239 239 239 239 240 240 240
249 242 236 234 231 230 232 231 230 230 230 229 229 230 231 232 235 236 236 234 233 233 232 232 236 241 243 244 245 245 243 242 243 244 242 240 240 242 244 243 241 241 241 240 240 239 240 240 240 240 241 241
249 245 238 235 234 232 232 231 231 231 231 230 230 231 232 233 235 237 239 239 238 237 235 233 234 237 240 242 244 245 244 242 242 244 244 243 242 241 244 245 244 243 242 242 241 241 241 241 241 241 242 242
250 247 240 236 236 235 234 232 232 231 230 230 231 232 234 234 235 236 238 239 240 241 239 237 235 236 238 240 243 245 246 244 243 244 246 245 244 243 243 245 246 245 243 243 243 242 241 241 241 241 242 242
249 248 244 240 238 238 237 234 234 233 230 230 232 233 234 235 235 235 236 238 239 241 241 240 239 238 239 241 242 245 246 246 246 246 248 248 248 247 247 246 247 246 245 244 244 243 242 242 242 242 242 242
248 247 244 242 240 239 239 237 235 234 232 231 232 233 234 235 235 236 236 237 238 240 241 242 242 242 242 243 244 246 247 247 247 247 248 250 250 250 251 250 249 248 247 244 244 244 243 242 242 243 242 242
247 246 243 242 241 241 241 239 236 235 235 232 231 233 234 235 235 236 237 237 238 239 240 242 243 243 244 245 246 246 247 247 246 246 247 249 250 250 250 250 250 249 248 246 243 242 242 241 242 242 243 243
248 246 245 243 242 242 242 240 238 237 237 235 233 233 234 235 235 235 237 238 239 239 240 241 242 242 243 244 246 246 246 246 247 247 246 247 249 249 249 249 249 249 248 246 243 241 240 240 240 242 242 243
248 246 246 245 243 243 243 242 241 240 239 238 235 233 234 234 235 235 236 238 239 239 240 241 242 242 241 242 244 245 245 247 247 247 247 246 247 248 248 248 248 247 245 243 241 239 238 238 239 241 242 243
249 246 244 244 244 245 244 243 242 241 240 239 238 235 235 235 235 235 235 237 238 239 239 240 242 242 241 241 242 243 244 246 247 247 246 246 246 246 247 247 246 244 242 240 238 237 235 235 237 239 242 242
250 248 245 243 244 245 246 245 244 243 242 241 240 239 237 237 236 236 235 236 237 238 239 240 241 242 242 241 241 241 242 244 246 247 246 245 245 246 246 246 244 242 241 239 237 235 234 234 235 238 241 242
251 249 247 245 243 243 245 245 244 244 243 242 242 240 239 239 238 238 237 237 237 237 238 238 240 242 242 241 240 241 241 242 244 246 247 246 246 246 246 245 243 241 240 239 238 237 235 234 235 236 240 242
252 250 249 247 246 244 243 244 245 245 244 243 242 240 239 239 239 240 239 239 239 238 237 237 238 241 242 241 240 240 241 241 242 244 245 246 245 245 244 243 242 241 240 238 237 238 238 238 238 237 237 240
256 252 250 247 247 246 244 243 243 244 244 244 243 241 240 240 239 240 240 241 241 240 239 238 237 239 241 242 241 240 239 240 242 243 243 244 244 243 242 241 241 240 240 238 236 236 238 239 241 240 238 237
257 255 252 249 246 245 245 244 243 243 243 243 243 242 241 240 240 240 240 241 242 242 242 240 239 239 240 242 242 241 240 239 240 242 242 242 242 242 241 240 239 239 239 237 235 235 235 236 239 241 242 240
258 256 254 252 249 246 245 244 244 243 242 241 242 243 242 241 241 240 240 241 242 243 243 242 241 240 240 240 242 242 242 240 239 240 242 242 241 240 240 239 239 238 237 237 235 235 235 235 236 238 241 243
259 257 256 254 252 250 247 245 244 244 244 242 241 241 242 241 241 241 241 241 242 243 244 243 242 241 240 240 240 241 242 242 240 239 240 241 241 240 239 239 238 237 237 236 235 234 234 235 235 236 237 239
262 259 257 256 254 252 250 247 245 244 244 244 243 242 242 241 241 242 242 242 242 243 244 244 242 241 240 239 239 240 241 242 242 241 239 239 240 240 239 238 238 238 237 236 235 235 234 233 234 235 236 237
264 261 258 256 255 253 252 250 248 245 243 243 244 243 243 242 241 241 242 243 243 243 243 244 243 242 241 240 239 239 239 240 242 242 241 240 239 239 239 238 237 237 237 237 237 236 235 235 234 234 235 237
264 262 260 257 255 254 253 252 250 248 246 244 243 243 244 244 243 242 242 243 243 244 244 244 244 244 242 241 239 239 239 239 240 241 242 241 240 239 239 238 238 238 238 237 237 237 237 237 236 234 235 236
263 262 260 258 256 255 253 252 251 250 249 247 244 243 243 244 244 244 244 244 244 244 244 244 244 244 244 242 240 239 239 239 239 239 240 241 241 240 240 239 239 238 238 238 237 237 237 238 238 236 235 235
264 262 260 259 257 256 254 252 251 251 250 249 248 246 244 244 244 245 245 244 244 244 245 245 245 245 245 244 242 241 240 239 238 238 239 240 240 240 240 240 239 239 239 239 239 238 237 238 239 239 237 236
264 263 261 259 257 256 255 254 252 251 250 250 249 248 247 245 244 244 244 244 245 245 245 245 245 245 245 245 244 243 242 240 238 238 238 238 239 239 239 240 240 240 239 239 240 239 238 238 239 240 239 238
263 263 261 260 258 256 255 254 253 251 251 250 250 249 248 247 246 245 244 244 244 245 245 245 245 245 245 245 245 244 244 242 240 239 238 238 238 238 238 239 239 240 240 239 240 240 240 239 239 240 240 240
264 263 262 261 259 258 256 255 253 252 251 251 250 250 249 248 248 247 246 245 245 244 244 244 244 244 245 245 245 245 245 244 243 241 240 239 238 238 238 238 238 239 240 239 239 240 240 240 240 240 240 241
265 264 263 262 260 259 258 256 255 253 252 251 250 250 250 249 248 248 247 247 246 245 245 244 244 244 244 244 245 245 245 245 245 244 242 241 238 237 237 237 237 237 238 239 239 239 240 240 241 241 241 241
265 264 263 262 261 260 259 258 256 255 253 252 251 250 250 250 249 248 248 248 248 247 246 245 245 244 244 244 244 245 245 245 245 244 244 242 240 238 237 237 237 237 237 238 239 239 239 239 240 241 241 241
266 265 264 263 262 261 260 259 258 256 255 254 252 251 251 251 250 248 248 248 248 248 248 247 246 245 244 244 244 244 244 245 245 245 245 244 242 240 237 236 237 237 237 237 238 239 239 239 239 240 241 241
266 265 264 263 262 261 261 260 259 258 257 255 254 253 252 251 251 249 248 248 248 249 249 248 247 246 245 245 244 244 244 244 244 245 245 245 244 243 240 237 236 237 237 237 237 238 238 238 238 239 240 241